GFSFLT2_850_spd_342.txt.gz
Wind_Speed
15 17 18 18 18 20 22 24 25 25 25 25 28 30 31 30 24 23 23 24 26 27 27 26 23 20 17 15 11 8 10 8
13 16 17 18 19 19 22 24 25 25 25 27 28 32 31 33 28 24 24 26 29 30 29 26 22 20 17 12 11 13 8 6
12 15 16 17 19 20 22 24 25 25 24 25 28 30 32 32 27 26 25 29 32 32 29 25 22 19 16 13 13 10 7 5
11 14 16 18 19 21 23 25 26 27 26 25 28 30 29 36 27 26 29 34 35 32 28 25 22 21 18 14 12 8 5 2
15 15 18 20 21 22 23 26 27 29 29 29 29 30 28 33 30 26 34 40 37 33 30 25 22 20 18 14 11 8 4 1
19 22 21 22 23 25 26 28 29 31 31 31 32 32 32 32 26 29 37 43 40 35 31 26 23 20 15 14 10 6 3 2
20 22 26 26 25 26 28 29 31 32 33 32 34 35 37 39 29 31 40 44 39 36 30 26 23 22 17 13 9 5 3 2
22 25 27 30 29 27 27 30 32 34 35 34 36 37 36 38 35 33 39 43 40 36 31 29 25 22 18 15 9 5 5 3
24 25 26 33 32 27 27 29 34 35 37 37 37 36 36 37 39 39 43 43 41 36 32 30 25 24 19 16 12 6 6 4
17 25 27 28 35 33 30 28 35 35 37 38 38 38 40 36 41 41 45 45 42 37 35 33 29 25 22 19 14 7 7 5
14 21 26 25 33 34 31 30 34 34 38 40 39 39 40 36 39 40 41 46 50 41 41 36 31 25 23 20 16 9 7 6
15 13 19 26 26 33 33 31 34 33 40 37 38 39 39 37 38 34 37 42 48 46 43 38 32 27 26 22 17 12 7 8
14 13 15 19 20 18 34 36 36 34 37 39 39 41 37 32 29 29 26 51 48 45 40 39 36 32 27 23 20 16 13 13
21 17 12 13 18 24 22 37 36 35 36 37 38 41 39 23 31 30 24 21 49 45 36 40 38 34 31 28 20 18 18 18
26 23 18 14 15 22 23 30 36 35 33 39 42 42 44 37 34 32 27 24 37 47 39 44 41 36 31 24 11 9 22 22
26 23 21 16 14 13 12 15 33 37 38 35 41 41 42 39 34 37 38 36 41 46 44 41 40 40 36 34 22 15 15 13
30 24 21 19 12 11 9 17 18 37 37 36 37 41 40 40 40 43 44 43 46 46 49 47 45 44 43 36 32 24 18 15
31 27 24 22 18 12 8 17 15 22 37 35 36 40 42 46 43 44 44 41 44 47 48 49 50 45 43 42 34 32 29 22
34 32 29 26 20 13 13 14 17 22 21 36 39 39 47 50 48 51 50 47 45 44 47 47 45 45 45 44 39 37 30 30
41 34 31 32 24 19 13 12 11 30 16 28 39 37 47 51 53 49 46 47 47 44 44 46 43 40 43 43 43 45 40 37

GFSFLT2_850_spd_348.txt.gz
Wind_Speed
5 3 3 7 9 11 13 13 13 14 14 16 17 22 27 27 25 19 21 21 20 20 21 21 20 18 14 14 14 19 11 11
2 4 4 3 6 11 13 14 15 15 14 16 18 22 25 29 29 24 20 18 17 21 22 21 19 16 14 13 13 15 10 10
2 3 4 7 7 8 12 14 15 15 16 17 19 24 27 30 32 23 20 19 17 21 23 21 20 17 15 12 13 9 10 8
6 4 6 7 7 8 10 11 11 15 16 19 20 26 29 28 29 31 24 21 19 23 24 22 20 19 16 13 9 11 8 8
10 9 6 8 10 8 11 13 13 15 16 18 20 24 29 32 32 30 27 25 21 25 24 23 18 16 16 13 12 10 8 7
12 10 10 12 12 10 10 14 16 14 16 18 20 24 27 31 29 36 29 28 24 27 25 23 21 16 15 15 13 10 9 8
17 14 13 11 13 13 13 15 16 17 15 19 21 23 24 30 30 38 32 30 26 27 28 25 23 17 16 15 13 11 10 9
22 17 15 14 14 15 14 15 17 17 19 21 22 24 25 28 31 34 33 31 29 27 32 29 25 18 17 15 13 11 10 11
23 21 17 16 15 18 17 17 19 18 20 21 22 25 24 26 35 37 36 38 32 26 32 30 27 24 19 16 13 11 11 11
23 22 20 17 15 17 19 20 19 20 20 22 22 27 27 26 29 39 40 36 36 34 34 32 29 24 20 17 13 12 12 12
24 23 22 18 15 16 18 20 20 21 20 21 23 26 29 27 38 33 40 35 39 39 37 33 31 28 20 17 14 12 13 12
23 23 23 20 16 14 15 18 18 21 22 23 20 27 27 32 28 32 37 35 37 43 40 35 33 31 23 20 15 13 13 12
24 24 23 22 19 15 14 18 19 23 24 22 24 22 27 29 33 30 28 36 37 40 41 43 36 32 31 25 21 16 13 12
24 24 23 21 20 16 15 15 20 21 24 23 24 24 27 21 36 38 35 44 37 39 46 45 45 43 39 34 20 19 20 16
26 25 24 21 21 17 14 15 11 12 18 21 24 24 25 26 26 42 35 33 44 46 41 50 43 49 49 33 20 10 19 18
26 26 24 22 21 19 16 14 15 14 14 20 24 27 25 25 29 40 34 39 35 43 42 40 52 53 48 44 34 19 18 10
26 27 24 23 21 18 17 14 15 15 20 20 24 27 25 26 28 30 39 38 35 40 41 51 38 55 53 47 37 25 23 15
27 27 27 25 23 20 17 16 14 15 14 13 24 24 27 26 30 26 35 32 31 38 38 38 50 48 49 49 48 38 29 16
27 28 28 28 25 23 18 18 14 14 16 15 16 22 19 28 29 26 36 30 37 34 33 37 46 43 50 58 50 43 34 26
27 28 28 28 26 24 22 19 17 15 16 16 19 15 21 15 27 31 28 34 39 32 35 35 32 43 37 46 47 41 36 28

GFSFLT2_850_spd_351.txt.gz
Wind_Speed
5 5 5 3 4 6 7 9 9 9 10 11 12 13 16 20 15 15 16 19 17 15 16 18 18 17 14 16 16 17 10 7
6 3 3 5 4 4 9 11 11 10 11 12 12 14 19 22 21 20 16 19 17 17 19 19 18 16 13 14 15 16 8 6
14 4 5 4 6 2 5 9 12 12 13 13 14 18 21 24 25 25 20 21 17 20 21 20 18 14 13 12 14 7 6 5
18 11 5 4 5 7 4 8 8 9 11 15 18 20 23 26 28 27 26 22 18 20 21 20 18 16 15 14 12 8 6 7
25 14 10 7 6 6 7 6 7 8 11 15 18 21 25 26 28 29 35 23 22 20 22 22 17 14 14 16 6 10 6 10
21 19 13 11 10 7 8 5 7 10 8 13 16 21 24 26 29 33 36 33 25 23 24 20 19 15 14 10 11 9 8 9
23 20 18 15 9 10 9 9 7 9 11 10 15 20 21 22 22 27 34 33 29 25 24 22 24 19 14 15 15 12 12 7
22 21 20 18 14 10 10 11 9 10 11 11 13 19 19 22 21 31 37 33 29 26 26 25 24 24 21 19 16 14 12 9
22 21 21 21 16 13 10 11 14 11 12 11 12 17 19 19 20 26 35 29 31 29 30 31 28 24 20 18 16 14 12 12
23 22 23 23 18 15 13 10 13 12 14 13 13 14 21 17 18 23 28 39 31 31 32 33 29 23 20 18 16 14 13 12
24 25 24 24 20 17 15 11 10 14 13 14 13 14 18 18 18 17 28 33 33 30 32 33 31 24 20 18 15 14 14 12
23 24 25 25 20 19 16 10 10 13 15 15 13 15 16 17 17 20 26 34 38 43 29 30 30 29 22 19 17 15 14 14
25 25 26 25 22 22 20 15 10 12 13 14 14 15 16 18 20 17 24 35 38 25 35 35 32 29 24 19 22 18 17 15
25 25 25 24 24 21 20 19 13 9 14 12 16 15 15 19 17 23 25 29 32 36 36 41 38 34 34 30 23 21 23 19
25 25 24 22 25 23 20 16 13 12 10 15 18 19 19 21 18 20 25 33 35 39 40 43 42 39 39 28 18 14 22 24
25 25 24 23 24 25 23 22 22 17 15 15 14 20 20 20 24 21 22 29 45 41 41 40 41 44 45 43 32 23 20 13
24 25 24 25 24 23 24 21 21 20 17 16 13 18 17 18 22 21 23 27 35 40 30 37 43 44 52 49 44 32 27 19
24 25 24 24 25 24 23 23 23 21 19 17 14 15 16 17 21 22 25 25 29 34 26 38 41 44 54 51 49 41 39 36
25 25 25 25 25 25 25 24 22 23 22 21 18 14 11 17 17 20 21 25 19 19 34 25 34 42 41 50 51 54 39 40
26 25 26 25 25 25 25 26 24 22 23 23 20 19 16 15 12 19 22 23 22 30 25 29 33 41 42 43 44 50 47 42

GFSFLT2_850_spd_354.txt.gz
Wind_Speed
8 8 8 8 7 4 3 5 3 3 4 6 9 10 10 12 14 11 15 17 14 11 15 15 17 18 18 20 18 14 12 7
5 7 5 6 6 7 4 5 7 6 6 7 8 11 11 14 16 13 13 12 16 12 16 16 17 17 15 19 16 12 1 7
9 8 11 6 5 6 4 5 6 7 8 8 10 12 13 16 18 15 14 12 16 14 17 17 17 15 14 16 16 11 3 8
15 12 9 5 8 6 4 6 6 5 7 10 12 14 16 17 20 19 19 18 17 16 18 18 18 16 15 17 13 10 10 9
17 18 13 12 13 9 8 6 4 5 8 12 13 16 17 19 22 22 24 24 22 18 21 21 19 16 16 18 10 8 7 12
24 20 19 15 11 11 9 6 3 4 6 8 13 16 18 20 23 23 23 25 28 21 25 23 18 11 16 15 12 12 12 11
25 21 21 21 16 13 11 6 6 5 6 8 11 16 17 17 21 23 29 32 29 24 26 24 22 15 12 11 10 13 12 13
26 25 24 23 16 13 10 10 8 5 6 7 9 13 15 16 18 16 22 28 29 23 26 26 24 24 18 16 15 13 7 11
24 22 23 24 18 14 10 11 11 7 5 5 7 10 14 13 15 15 22 27 34 29 30 27 28 27 20 20 18 17 9 12
23 23 25 25 18 13 15 11 8 9 4 5 6 11 12 13 9 11 12 29 28 34 27 29 31 32 26 20 20 18 14 12
25 25 27 28 24 15 13 11 7 7 7 5 5 7 10 10 8 9 11 20 31 33 27 32 31 29 26 22 18 18 17 12
26 28 30 28 29 22 15 12 5 7 7 8 8 5 9 9 10 4 9 19 25 30 29 36 31 29 24 21 18 18 16 13
27 29 31 29 32 30 24 20 13 4 7 9 10 9 8 10 8 7 9 17 24 34 30 30 32 27 23 20 17 18 19 17
27 27 29 29 30 31 27 23 18 11 6 9 9 7 12 15 12 12 14 14 19 27 31 46 29 31 27 23 19 20 22 21
27 26 26 27 27 29 29 22 18 13 7 9 11 7 13 12 19 15 15 13 18 24 33 25 27 33 35 26 18 12 25 24
28 26 25 25 27 30 27 28 27 23 19 12 9 14 11 16 14 21 16 15 18 20 27 29 32 38 42 41 29 22 21 16
27 27 25 27 25 26 27 27 27 25 23 16 11 10 8 5 17 15 23 19 16 20 22 29 43 41 43 43 36 28 25 24
28 26 26 26 26 25 26 26 28 26 24 21 15 13 10 8 10 16 23 18 21 19 16 27 30 42 34 42 44 43 39 33
28 27 26 26 25 24 24 27 26 27 26 23 20 16 12 10 10 11 16 23 19 19 17 32 31 33 35 41 44 44 42 40
28 27 26 25 25 24 23 25 26 26 26 24 19 18 17 13 12 9 12 22 20 18 13 21 27 34 35 36 41 46 49 50